Vertical_Velocity
-8 4 -2 7 -2 -9 0 6 9 1 -4 -3 -2 1 -1 -1 -2 -2 -3 -1 -1 1 1 1 1 -0 -1 2 1 1 1 -1 -1 -1 -0 -3 -2 -3 -1 0 2 2 3
0 1 -10 1 -2 3 -1 -2 5 5 5 2 7 2 5 5 2 3 3 2 1 -0 0 0 0 1 1 1 1 1 0 1 1 -1 1 -8 -7 -4 0 0 -0 1 0
0 2 -4 -0 8 -2 -9 -4 3 2 -2 -5 -1 2 0 1 1 -1 -3 -1 -2 -1 1 3 1 1 -0 -2 2 1 -0 0 4 1 3 -0 -5 -2 -2 -3 -4 -3 -2
1 -2 -1 -2 1 3 4 4 1 1 1 3 6 -1 -4 -2 2 1 5 6 7 4 0 1 -0 1 6 -2 5 5 -1 4 -1 2 1 3 1 -5 -5 -8 -2 -6 -3
0 -6 -1 -3 -2 -4 0 2 3 3 1 -1 -2 2 1 6 4 3 -1 3 6 2 7 1 2 2 3 6 -1 1 -1 3 3 1 1 4 3 0 6 -2 -6 -1 0
-3 -3 -2 -0 -1 -0 -2 -0 -2 -1 1 1 1 4 5 4 1 5 2 3 1 2 2 4 4 9 1 2 5 2 1 1 4 1 1 2 6 -4 3 5 1 2 -5
-2 -1 -2 -4 -1 -2 -2 0 1 -2 0 0 -3 -0 2 -1 -1 -0 1 -3 1 1 5 1 -2 -3 1 -1 2 1 -0 -0 0 1 1 2 1 4 5 4 1 -1 1
0 -2 -3 -2 -2 -1 -1 -1 1 2 2 6 2 -0 -4 -1 1 1 0 -1 -1 1 1 1 2 1 0 0 1 -0 4 2 -0 1 -5 -2 -1 -1 -1 5 7 1 -1
2 2 4 6 3 2 1 1 -0 -0 0 0 0 1 1 -0 0 1 1 0 -0 -0 0 1 2 -0 -1 1 4 1 -1 -0 1 1 3 3 1 -0 -2 2 3 4 3
-0 1 1 4 4 3 4 4 3 1 2 -0 -2 -5 -3 -2 -1 -1 -0 -1 1 0 -0 -0 -1 0 2 1 3 3 -0 5 2 3 -5 -5 -3 -2 -2 2 1 -0 2
-2 -0 3 3 3 2 2 3 2 5 1 3 2 -1 -1 -2 -2 -2 -0 1 -2 -0 -0 -2 1 0 -1 -0 6 3 4 4 2 1 -0 -1 1 -1 -1 1 0 0 2
0 3 2 1 0 -0 -1 1 1 -1 2 0 2 0 1 2 -1 1 -1 -1 -0 -2 -2 -2 0 -1 1 -2 2 1 3 2 1 1 2 1 -3 -3 -0 1 1 1 2
-1 -1 -1 0 2 2 0 -2 -2 -1 -3 -1 -1 -0 -1 -1 -1 -1 -0 2 1 1 0 1 1 3 1 2 1 0 -1 -0 1 1 -1 -3 -1 -1 -1 -3 -1 -3 -1
2 1 -0 -2 -1 -2 -1 -2 -2 -1 -0 -1 -1 2 0 -1 -1 -2 -1 1 1 1 0 -1 -0 0 1 2 2 1 2 2 -1 -0 -0 -2 -2 -2 -1 0 -0 1 1
-2 -1 -1 -0 -1 1 1 0 -1 0 -1 -2 -1 2 -2 -1 1 -1 -3 -1 0 -2 -1 -1 -2 -2 -1 -1 0 -2 -1 0 1 -1 -0 -2 -3 1 -2 -0 -0 -0 0
-1 1 1 0 -2 -3 1 2 -2 -1 2 0 -1 -0 -2 -2 -4 1 -4 1 -2 1 -2 -1 -1 1 -3 2 -3 5 -0 -0 1 -2 -1 0 0 1 -0 0 -1 0 -2
-0 -2 -2 -2 -2 -1 -1 0 2 -1 -1 -0 -1 -2 -3 -2 -3 -1 -0 -0 -0 1 -1 2 -2 -0 0 -1 -0 1 -1 0 0 1 -0 -2 1 0 -1 -1 1 -3 -1
-1 -2 -1 1 -2 1 -1 -1 0 0 -0 -1 0 -0 -1 -1 -1 2 0 0 0 -1 0 2 2 -1 0 1 -0 2 -0 2 2 0 -3 1 1 -0 -2 0 -2 -1 -0
0 -0 1 2 3 2 1 -1 -0 -1 -2 -1 -1 -1 2 -2 -1 -1 -1 -1 -1 0 3 2 -1 -0 0 -1 2 -0 1 -1 -1 -3 1 2 0 -0 -2 -3 -1 1 -0
-1 -1 -1 1 2 1 1 0 -1 -0 -1 -1 1 1 -0 2 0 -0 0 -0 1 1 1 -1 -0 -1 2 1 1 1 -1 0 -2 0 2 -0 -1 -2 -2 -1 -0 0 0
-0 -0 -0 1 3 3 1 0 -0 -1 1 1 1 1 -2 0 1 1 -1 0 0 0 -0 1 -0 1 1 1 0 0 -2 -1 2 1 1 -1 -1 -1 -2 -0 -1 -1 -0
-1 -0 -1 -0 1 2 2 2 -0 2 -0 2 -1 -1 -1 -0 -0 0 1 -0 -0 -0 0 1 0 -1 1 1 -0 -1 -0 2 0 1 0 -1 -2 0 0 -1 -2 -2 -1
-1 1 0 1 1 -1 -1 -2 1 0 0 -1 0 0 0 2 2 2 1 -0 0 -1 0 0 0 2 0 -1 -0 -0 0 1 1 -0 -1 -1 1 1 -1 -2 -2 -0 1
-0 -1 1 -0 -1 -0 1 1 -0 0 -0 1 1 0 0 -1 -1 0 1 0 -1 -2 -0 -1 -1 -0 -0 -1 -1 0 1 1 -0 -1 -2 -1 1 -1 -2 -1 -0 0 -0
-2 -1 -0 -1 0 -0 0 1 0 1 1 2 -0 0 1 -1 0 1 2 1 3 4 2 2 2 0 -1 0 0 0 1 0 -1 -1 -0 1 -2 -2 -0 0 -1 -1 -1
1 -1 -0 0 -0 0 -0 -0 0 1 2 0 -1 0 1 -1 1 2 1 -0 -1 1 0 -2 -0 -0 -1 -1 1 1 -0 -1 -1 -1 -0 -2 -1 1 0 -1 -1 -1 -1
Height
1490 1493 1497 1500 1504 1507 1509 1509 1513 1515 1519 1523 1526 1529 1531 1535 1538 1540 1543 1546 1549 1551 1553 1555 1557 1559 1560 1562 1564 1566 1567 1568 1569 1570 1569 1569 1569 1569 1569 1570 1570 1570 1571
1489 1494 1496 1497 1501 1503 1507 1508 1509 1512 1517 1521 1524 1527 1530 1533 1535 1538 1540 1543 1545 1548 1549 1552 1554 1556 1557 1559 1560 1562 1563 1564 1565 1566 1566 1565 1565 1564 1565 1566 1566 1567 1567
1483 1486 1491 1494 1496 1501 1504 1506 1508 1510 1514 1517 1521 1522 1526 1529 1531 1533 1536 1539 1542 1544 1546 1548 1550 1552 1554 1555 1556 1558 1559 1560 1561 1562 1563 1562 1561 1561 1561 1562 1563 1564 1564
1481 1484 1486 1490 1490 1495 1499 1502 1504 1507 1510 1513 1516 1517 1522 1524 1526 1528 1533 1536 1539 1540 1542 1544 1546 1547 1548 1550 1551 1553 1555 1556 1556 1557 1557 1557 1557 1557 1556 1557 1558 1558 1559
1477 1481 1484 1486 1488 1490 1494 1497 1500 1502 1505 1507 1511 1515 1518 1520 1522 1525 1528 1531 1534 1536 1538 1539 1540 1541 1542 1544 1546 1547 1548 1550 1551 1552 1552 1552 1551 1552 1551 1548 1550 1551 1553
1472 1475 1479 1481 1483 1486 1489 1493 1496 1499 1502 1505 1508 1511 1515 1517 1520 1522 1524 1526 1529 1532 1533 1533 1535 1536 1538 1539 1541 1542 1542 1543 1544 1544 1545 1546 1545 1545 1545 1543 1544 1545 1546
1465 1468 1471 1475 1478 1482 1485 1488 1492 1495 1499 1501 1505 1508 1512 1513 1516 1518 1520 1522 1524 1525 1527 1528 1529 1531 1532 1533 1534 1535 1535 1536 1537 1538 1538 1539 1539 1539 1538 1538 1537 1538 1540
1459 1464 1467 1471 1475 1478 1481 1483 1487 1490 1494 1497 1500 1503 1507 1509 1511 1513 1515 1516 1519 1520 1521 1522 1523 1524 1526 1527 1528 1528 1529 1530 1531 1531 1532 1533 1534 1534 1533 1533 1533 1532 1532
1453 1458 1462 1467 1471 1475 1478 1481 1484 1487 1490 1493 1496 1499 1502 1505 1507 1508 1509 1511 1513 1514 1515 1515 1516 1517 1518 1520 1521 1522 1523 1524 1525 1526 1527 1527 1527 1528 1528 1528 1528 1528 1526
1449 1453 1458 1464 1468 1472 1475 1478 1480 1484 1486 1489 1492 1496 1499 1500 1502 1503 1504 1504 1505 1506 1506 1507 1508 1509 1511 1513 1514 1515 1516 1517 1519 1521 1521 1522 1522 1523 1523 1523 1523 1523 1523
1448 1451 1456 1462 1466 1469 1473 1476 1479 1481 1483 1486 1487 1489 1493 1494 1496 1497 1498 1498 1498 1499 1499 1500 1502 1502 1504 1506 1508 1510 1511 1512 1513 1515 1515 1516 1517 1518 1518 1518 1519 1518 1518
1450 1455 1459 1463 1466 1469 1472 1475 1477 1479 1481 1482 1483 1486 1488 1489 1490 1491 1492 1493 1493 1493 1495 1496 1497 1498 1499 1501 1502 1505 1506 1506 1507 1509 1509 1510 1512 1513 1514 1514 1515 1514 1515
1452 1456 1460 1463 1466 1468 1471 1474 1476 1478 1480 1481 1482 1483 1484 1485 1486 1486 1488 1487 1487 1488 1489 1490 1491 1493 1494 1496 1496 1498 1500 1501 1501 1503 1504 1506 1508 1509 1510 1511 1511 1511 1511
1455 1458 1461 1464 1467 1469 1471 1473 1476 1477 1478 1480 1481 1481 1481 1482 1482 1483 1483 1483 1483 1483 1484 1485 1486 1487 1489 1490 1491 1493 1494 1495 1497 1499 1500 1502 1504 1506 1507 1508 1508 1507 1506
1456 1458 1460 1463 1466 1468 1470 1472 1474 1476 1477 1478 1478 1478 1478 1480 1480 1478 1479 1479 1479 1480 1481 1482 1483 1483 1485 1486 1488 1490 1491 1493 1494 1495 1498 1499 1502 1503 1503 1504 1504 1504 1504
1455 1457 1459 1462 1464 1467 1469 1471 1472 1474 1474 1475 1476 1476 1476 1477 1477 1476 1477 1477 1478 1478 1479 1480 1481 1482 1484 1484 1487 1488 1489 1492 1492 1493 1496 1498 1500 1500 1501 1502 1503 1503 1503
1454 1456 1457 1460 1463 1465 1467 1469 1470 1471 1472 1473 1474 1474 1475 1475 1476 1475 1476 1476 1477 1477 1478 1479 1479 1482 1482 1485 1486 1488 1489 1490 1491 1493 1494 1497 1498 1499 1500 1501 1501 1501 1502
1452 1454 1456 1458 1460 1463 1464 1466 1467 1468 1469 1471 1471 1472 1473 1474 1474 1474 1474 1475 1475 1476 1478 1478 1479 1482 1482 1484 1486 1487 1489 1490 1491 1493 1495 1496 1498 1498 1499 1500 1500 1499 1499
1451 1452 1454 1455 1457 1459 1461 1463 1465 1466 1467 1468 1469 1470 1470 1471 1472 1472 1473 1474 1475 1476 1477 1478 1479 1482 1483 1484 1486 1487 1489 1490 1492 1493 1495 1496 1496 1496 1497 1497 1497 1496 1496
1448 1449 1450 1450 1452 1454 1457 1460 1461 1462 1463 1465 1466 1467 1467 1468 1470 1471 1472 1474 1475 1476 1476 1478 1480 1482 1484 1484 1486 1487 1489 1491 1492 1494 1494 1494 1494 1494 1494 1494 1494 1493 1493
1446 1445 1445 1446 1447 1451 1454 1456 1458 1459 1461 1462 1463 1464 1465 1467 1468 1469 1471 1472 1473 1474 1476 1478 1480 1482 1484 1485 1486 1488 1489 1491 1491 1492 1491 1492 1492 1492 1491 1491 1491 1490 1490
1444 1444 1444 1445 1447 1449 1452 1453 1455 1457 1458 1459 1460 1462 1463 1464 1466 1467 1469 1470 1471 1473 1475 1477 1479 1482 1483 1485 1486 1487 1489 1489 1489 1490 1490 1489 1489 1489 1488 1488 1487 1487 1486
1443 1443 1444 1445 1446 1447 1449 1450 1452 1453 1455 1456 1457 1459 1461 1460 1463 1465 1466 1468 1470 1472 1474 1476 1479 1481 1482 1484 1485 1486 1487 1488 1487 1487 1487 1487 1487 1487 1485 1485 1484 1484 1483
1441 1441 1442 1443 1443 1445 1447 1448 1449 1450 1451 1453 1454 1456 1457 1459 1460 1462 1464 1466 1468 1470 1473 1475 1477 1479 1481 1482 1484 1485 1486 1485 1485 1485 1485 1485 1485 1484 1483 1482 1482 1481 1480
1438 1438 1439 1440 1441 1443 1444 1445 1445 1446 1448 1449 1451 1452 1454 1455 1457 1459 1461 1463 1466 1469 1472 1474 1476 1478 1480 1481 1482 1483 1483 1483 1483 1483 1483 1483 1482 1481 1481 1480 1479 1478 1477
1438 1437 1438 1438 1439 1440 1440 1441 1441 1442 1444 1445 1447 1449 1451 1452 1454 1456 1458 1461 1464 1467 1469 1471 1473 1475 1477 1478 1479 1480 1480 1480 1481 1481 1481 1480 1479 1478 1477 1476 1475 1474 1473